Location: Hopkins Hollow
(41.6698°N, 71.7528°W)
Time: 07:59:03
(UTC+00:00)

Daily predictions for brighter satellites

Satellite Brightness Start Highest point End
(mag) Time Altitude Azimuth Time Altitude Azimuth Time Altitude Azimuth
USA 238 DEB 3.6 21:40:06 10° SSW 21:45:59 61° ESE 21:52:24 10° NE
USA 238 3.6 21:40:13 10° SSW 21:46:06 60° ESE 21:52:31 10° NE
Cosmos 1607 4.5 21:39:53 10° NW 21:46:06 69° WSW 21:52:22 10° SSE
IRIDIUM 104 4.3 21:42:16 10° N 21:47:29 68° E 21:52:40 10° S
USA 290 4.3 21:45:22 10° NW 21:48:21 33° WSW 21:51:18 10° S
IGS 5A 3.3 21:45:31 10° SSE 21:49:28 78° ENE 21:53:27 10° N
Cosmos 990 Rocket 4.0 21:44:32 10° SSW 21:49:39 88° ESE 21:54:50 10° NNE
Cosmos 2058 Rocket 4.2 21:49:15 10° SE 21:52:48 24° E 21:56:22 10° NE
Cosmos 1606 Rocket 3.5 21:51:41 10° S 21:56:04 75° E 22:00:30 10° NNE
IRIDIUM 114 4.3 21:51:22 10° N 21:56:38 83° E 22:01:50 10° S
BREEZE M DEB (TANK) 2.9 21:57:04 10° W 21:59:36 31° NNW 22:01:26 11° NE
Cosmos 2151 3.6 21:56:52 10° NNW 22:00:59 60° W 22:05:05 10° S
Cosmos-2242 4.0 21:57:39 10° SE 22:01:07 25° E 22:04:36 10° NE
GEOS 3 Rocket 3.8 21:57:55 10° NE 22:03:18 70° SE 22:08:38 10° SSW
CZ-2D R/B 3.3 22:01:59 10° SE 22:04:50 34° ENE 22:07:44 10° N
IRIDIUM 103 4.5 22:00:32 10° N 22:05:47 81° W 22:10:59 10° S
Meteor 1-28 Rocket 3.9 22:02:48 10° N 22:06:03 48° WNW 22:09:14 10° SSW
Gbstr 26 Del rocket 4.0 22:03:57 10° W 22:07:41 30° NNW 22:10:58 11° NE
Cosmos 2082 4.4 22:05:46 10° N 22:10:48 30° NE 22:15:48 10° ESE
Aureole 1 Rocket 3.4 22:06:41 10° S 22:11:03 65° ESE 22:16:38 10° NNE
Cosmos 1655 Rocket 4.0 22:05:19 10° N 22:11:27 58° E 22:17:33 10° SSE
Cosmos 2297 Rocket 4.0 22:08:32 10° NW 22:13:38 35° WSW 22:18:42 10° SSW
SAR-Lupe-4 3.6 22:11:06 10° SSE 22:14:33 52° ENE 22:18:00 10° N
ARIANE 5 R/B 2.5 22:10:47 10° SSE 22:15:47 66° ENE 22:20:53 10° N
EXPRESS MD2 2.5 22:14:03 10° WSW 22:16:23 65° NNW 22:18:40 17° NE
Cosmos 1726 Rocket 3.7 22:13:08 10° S 22:17:46 87° W 22:22:21 10° N
SL-16 R/B 3.6 22:16:08 10° SE 22:19:47 18° E 22:21:40 15° ENE
UNK 4.2 22:21:32 10° N 22:26:03 61° WNW 22:30:30 10° SSW
CORIOLIS 4.4 22:21:33 10° S 22:26:52 71° WSW 22:32:13 10° NNW
YAOGAN 1 3.5 22:24:44 10° ESE 22:28:10 24° ENE 22:31:37 10° NNE
SJ-6F 4.4 22:24:21 10° SSE 22:28:13 54° ENE 22:32:10 10° N
SAR-Lupe-1 4.0 22:24:42 10° SSE 22:28:16 68° ENE 22:31:52 10° N
AQUARIUS 4.0 22:26:07 10° SSE 22:30:29 70° ENE 22:34:53 10° N
Cosmos 1980 Rocket 2.4 22:27:23 10° SSW 22:33:01 74° WNW 22:38:41 10° NNE
IRS-1C 4.1 22:27:45 10° SSE 22:33:04 89° WSW 22:38:26 10° NNW
Cosmos 1844 Rocket 3.9 22:30:07 10° N 22:34:07 19° NE 22:34:41 19° ENE
Meteor 2-20 4.5 22:32:12 10° S 22:38:22 87° W 22:44:33 10° N
Cosmos 2219 3.2 22:33:22 10° NNW 22:39:03 61° ENE 22:44:44 10° SE
Meteor 2-10 4.1 22:35:05 10° N 22:40:33 71° E 22:46:09 10° SSE
Cosmos 2263 Rocket 2.2 22:37:36 10° NNW 22:43:19 85° WSW 22:49:00 10° SSE
USA 81 3.9 22:38:24 10° N 22:43:41 71° E 22:48:55 10° S
SJ-12 4.1 22:40:14 10° S 22:43:58 66° WSW 22:47:45 10° NNW
SPOT 1/Viking Rocket 3.6 22:38:55 10° SSE 22:43:59 58° ENE 22:49:06 10° N
Meteor 2-2 Rocket 4.1 22:38:38 10° S 22:44:13 69° E 22:49:49 10° NNE
Meteor 1-26 Rocket 4.0 22:41:09 10° S 22:46:31 74° E 22:51:54 10° NNE
CZ-4C R/B 4.4 22:39:36 10° NW 22:46:40 43° WSW 22:54:56 10° S
USA 308 3.0 22:44:20 10° SSW 22:47:11 37° SE 22:47:47 34° ESE
COSMOS 2455 3.0 22:43:10 10° S 22:48:57 51° ESE 22:52:28 23° NE
SKYMED 2 3.5 22:45:04 12° NNE 22:49:07 67° ESE 22:53:25 10° S
SMAP 4.4 22:45:03 10° S 22:49:26 41° W 22:53:52 10° NNW
MOS 1 Rocket 3.7 22:46:21 10° S 22:51:17 74° W 22:56:31 10° NNW
Nadezhda 2 Rocket 4.4 22:45:52 10° N 22:51:53 58° E 22:57:53 10° SSE
Cosmos 1553 Rocket 3.9 22:46:08 10° S 22:52:12 64° E 22:58:24 10° NNE
Cosmos 1538 Rocket 4.3 22:48:09 10° NNW 22:53:26 71° WSW 22:58:44 10° S
Cosmos 2369 3.7 22:47:46 10° SSW 22:53:29 90° WSW 22:58:20 15° NNE
COSMO-SKYMED 1 2.6 22:53:03 31° NE 22:54:39 48° E 22:58:38 10° S
Cosmos 1953 Rocket 4.3 22:51:27 10° NNW 22:55:48 55° W 23:00:09 10° S
Cosmos 1805 2.7 22:52:36 10° N 22:55:59 84° E 22:59:19 10° S
USA 59 Rocket 1.6 22:54:28 10° SSE 22:56:13 16° SE 22:56:13 16° SE
Meteor 2-20 Rocket 4.5 22:53:13 10° S 22:59:26 84° W 23:05:27 10° N
SL-19 R/B 4.3 22:58:21 10° SE 23:03:35 53° ENE 23:09:08 10° N
Cosmos 2227 Rocket 4.1 23:00:31 10° NW 23:05:25 31° WSW 23:10:17 10° SSW
Cosmos 2360 Rocket 3.7 23:01:33 10° SSE 23:03:50 18° SE 23:03:50 18° SE
Hubble Space Telescope 3.4 23:09:30 10° SSW 23:10:06 10° S 23:10:42 10° S
Cosmos 2221 3.5 23:07:29 10° SSE 23:09:58 30° SE 23:09:58 30° SE
Cosmos 1745 Rocket 4.1 23:06:24 10° N 23:12:17 45° ENE 23:18:06 10° SSE
Cosmos 1812 Rocket 4.4 23:09:06 10° SSE 23:11:47 32° SE 23:11:47 32° SE
Cosmos 1898 Rocket 4.4 23:10:58 10° SW 23:15:53 46° WNW 23:20:26 12° N
Spot 4 Rocket 3.9 23:12:06 10° SSE 23:17:12 82° ENE 23:22:20 10° NNW
BREEZE-M DEB (TANK) 4.4 23:14:32 10° NW 23:18:50 65° NNE 23:25:45 27° ESE
Cosmos 2333 Rocket 2.5 23:19:34 10° S 23:24:52 46° ESE 23:24:52 46° ESE
BREEZE-M DEB (TANK) 3.4 23:17:42 10° SW 23:25:37 71° SSE 23:26:17 60° E
Cosmos 2112 Rocket 3.9 23:20:56 10° NNW 23:25:57 58° ENE 23:25:57 58° ENE
Helios 1A Rocket 4.0 23:28:49 29° SSW 23:28:49 29° SSW 23:30:36 10° SSW
Cosmos 1937 Rocket 4.3 23:24:22 10° SW 23:29:21 47° WNW 23:32:50 19° N
Cosmos 1386 Rocket 4.3 23:24:18 10° N 23:30:28 81° E 23:36:42 10° S
Cosmos 1417 Rocket 4.3 23:24:45 10° S 23:30:52 71° E 23:34:11 29° NNE
Cosmos 2322 Rocket 3.0 23:26:52 10° S 23:30:37 34° SE 23:30:37 34° SE
Cosmos 923 Rocket 4.2 23:29:33 10° NNW 23:34:43 70° WSW 23:39:51 10° S
USA 215 4.5 23:36:58 24° NNE 23:37:38 25° N 23:42:42 10° NW
Meteor 1-14 Rocket 4.1 23:37:58 10° N 23:43:43 84° E 23:49:19 10° S
NOSS 3-1 (C) 4.3 23:40:56 10° S 23:42:49 24° S 23:42:49 24° S
